Regional Weather Roundup
Issued by NWS Binghamton, NY

Home | Current Version | Previous Version | Text Only | Print | Product List | Glossary On
Versions: 1 2 3 4 5 6 7 8 9 10 11 12 13 14 15 16 17 18 19 20 21 22 23 24 25 26 27 28
000
ASUS41 KBGM 222110
RWRBGM

REGIONAL WEATHER ROUNDUP
NATIONAL WEATHER SERVICE BINGHAMTON NY
400 PM EST THU FEB 22 2018

Note: "fair" indicates few or no clouds below 12,000 feet with no
significant weather and/or obstructions to visibility.

* = Station(s) that does not report precipitation, such as rain,
snow, etc, also no thunder or fog.

NYZ009-015>018-022>025-036-037-044>046-055>057-062-222200
...Central New York...

CITY           SKY/WX    TMP DP  RH WIND       PRES   REMARKS
Binghamton     SNOW      32  30  92 NE8       30.57S VSB 1/2 WCI  25
Cortland       PTSUNNY   32  32 100 NE5       30.60F WCI  27
Dansville      PTSUNNY   35  31  85 N3        30.59F
Elmira         CLOUDY    35  34  96 E8        30.59F WCI  29
Seneca Falls   CLOUDY    34  32  93 CALM      30.64F
Ithaca         CLOUDY    38  35  89 VRB3      30.60F FOG
Hornell        PTSUNNY   36  30  80 SE7       30.60F WCI  30
Monticello     LGT SNOW  32  30  93 E3        30.58S VSB 1
Oneonta        LGT SNOW  30  30 100 CALM      30.59R
Penn Yan       CLOUDY    33  30  88 NE3       30.61F FOG
Rome           CLOUDY    34  33  96 CALM      30.65F
Sidney         LGT RAIN  32  32 100 E3        30.62S
Syracuse       CLOUDY    33  33 100 NE3       30.65F
$$

PAZ038>040-043-044-047-048-072-222200
...Northeast Pennsylvania...

CITY           SKY/WX    TMP DP  RH WIND       PRES   REMARKS
Hazleton       DRIZZLE   36  34  93 CALM      30.57R
Scranton       LGT RAIN  39  38  96 N6        30.58R FOG     WCI  35
$$
&&
KEY
WCI = Wind Chill Index
VSB = Visibility
HX  = Heat Index
$$




USA.gov is the U.S. government's official web portal to all federal, state and local government web resources and services.